Location: ????????
(54.9045°N, 39.1041°E)
Time: 06:43:26
(UTC+00:00)

Cosmos 1624 Rocket - Visible Passes

Search period start: 16 July 2024 00:00
Search period end: 26 July 2024 00:00
Orbit: 754 x 781 km, 74.0° (Epoch: 15 July)

Date Brightness Start Highest point End Pass type
(mag) Time Alt. Az. Time Alt. Az. Time Alt. Az.
16 Jul 5.7 20:40:58 13° SE 20:43:45 19° E 20:47:21 10° NE visible
16 Jul 4.0 22:21:13 18° SSW 22:25:08 87° WNW 22:30:26 10° NNE visible
17 Jul 5.8 00:03:49 10° W 00:07:59 23° NW 00:12:12 10° NNE visible
17 Jul 6.1 20:05:08 10° ESE 20:07:05 12° E 20:09:03 10° ENE visible
17 Jul 4.1 21:44:41 21° S 21:48:06 64° ESE 21:53:19 10° NNE visible
17 Jul 5.4 23:25:57 10° WSW 23:30:35 31° NW 23:35:16 10° NNE visible
18 Jul 4.6 21:08:08 21° SSE 21:11:09 42° ESE 21:16:05 10° NE visible
18 Jul 4.9 22:48:22 10° WSW 22:53:16 42° NW 22:58:18 10° NNE visible
19 Jul 5.2 20:31:33 18° SE 20:34:18 28° E 20:38:43 10° NE visible
19 Jul 4.4 22:11:47 15° SW 22:16:02 61° WNW 22:21:17 10° NNE visible
19 Jul 6.2 23:55:36 10° WNW 23:59:14 18° NW 00:02:54 10° N visible
20 Jul 5.7 19:54:56 13° SE 19:57:33 19° E 20:01:05 10° NE visible
20 Jul 4.0 21:35:10 20° SSW 21:38:55 88° WNW 21:44:13 10° NNE visible
20 Jul 5.9 23:17:32 10° W 23:21:44 24° NW 23:25:59 10° NNE visible
21 Jul 6.0 19:19:04 10° ESE 19:20:54 12° E 19:22:43 10° ENE visible
21 Jul 4.1 20:58:31 22° S 21:01:52 62° ESE 21:07:05 10° NNE visible
21 Jul 5.5 22:39:40 10° WSW 22:44:20 31° NW 22:49:03 10° NNE visible
22 Jul 6.6 00:26:01 10° NW 00:28:12 12° NNW 00:30:23 10° N visible
22 Jul 4.6 20:21:50 20° SSE 20:24:56 41° ESE 20:29:52 10° NE visible
22 Jul 5.0 22:02:03 10° SW 22:07:01 43° NW 22:12:04 10° NNE visible
22 Jul 6.5 23:47:34 10° WNW 23:50:33 15° NNW 23:53:34 10° N visible
23 Jul 5.1 19:45:06 16° SSE 19:48:05 27° E 19:52:29 10° NE visible
23 Jul 4.4 21:25:20 14° SW 21:29:47 62° WNW 21:35:04 10° NNE visible
23 Jul 6.3 23:09:18 10° W 23:12:58 19° NW 23:16:41 10° N visible
24 Jul 5.6 19:08:19 12° SE 19:11:20 18° E 19:14:50 10° NE visible
24 Jul 4.0 20:48:33 17° SSW 20:52:40 90° ENE 20:57:59 10° NNE visible
24 Jul 6.0 22:31:14 10° W 22:35:29 24° NW 22:39:46 10° NNE visible
25 Jul 6.8 00:18:23 10° NNW 00:19:38 11° NNW 00:20:54 10° N visible
25 Jul 6.0 18:32:59 10° ESE 18:34:40 12° E 18:36:22 10° ENE visible
25 Jul 4.1 20:11:43 17° S 20:15:38 61° ESE 20:20:51 10° NNE visible
25 Jul 5.6 21:53:23 10° WSW 21:58:05 32° NW 22:02:50 10° NNE visible
25 Jul 6.7 23:39:40 10° NW 23:41:56 13° NNW 23:44:11 10° N visible
